QPF
0.00 0.00 0.00 0.00 0.00 0.00 0.00 0.00 0.00 0.00 0.00 0.00 0.00 0.00 0.00 0.00 0.00 0.00 0.00 0.00 0.00 0.00 0.00 0.00 0.00 0.00 0.00 0.00 0.00 0.00 0.00 0.00
0.00 0.00 0.00 0.00 0.00 0.00 0.00 0.00 0.00 0.00 0.00 0.00 0.00 0.00 0.00 0.00 0.00 0.00 0.00 0.00 0.00 0.00 0.00 0.00 0.00 0.00 0.00 0.00 0.00 0.00 0.00 0.00
0.00 0.00 0.00 0.00 0.00 0.00 0.00 0.00 0.00 0.00 0.00 0.00 0.00 0.00 0.00 0.00 0.00 0.00 0.00 0.00 0.00 0.00 0.00 0.00 0.00 0.00 0.00 0.00 0.00 0.00 0.00 0.00
0.00 0.00 0.00 0.00 0.00 0.00 0.00 0.00 0.00 0.00 0.00 0.00 0.00 0.00 0.00 0.00 0.00 0.00 0.00 0.00 0.00 0.00 0.00 0.00 0.00 0.00 0.00 0.00 0.00 0.00 0.00 0.00
0.00 0.00 0.00 0.00 0.00 0.00 0.00 0.00 0.00 0.00 0.00 0.00 0.00 0.00 0.00 0.00 0.00 0.00 0.00 0.00 0.00 0.00 0.00 0.00 0.00 0.00 0.00 0.00 0.00 0.00 0.00 0.00
0.00 0.00 0.00 0.00 0.00 0.00 0.00 0.00 0.00 0.00 0.00 0.00 0.00 0.00 0.00 0.00 0.00 0.00 0.00 0.00 0.00 0.00 0.00 0.00 0.00 0.00 0.00 0.00 0.00 0.00 0.00 0.00
0.00 0.00 0.00 0.00 0.00 0.00 0.00 0.00 0.00 0.00 0.00 0.00 0.00 0.00 0.00 0.00 0.00 0.00 0.00 0.00 0.00 0.00 0.00 0.00 0.00 0.00 0.00 0.00 0.00 0.00 0.00 0.00
0.00 0.00 0.00 0.00 0.00 0.00 0.00 0.00 0.00 0.00 0.00 0.00 0.00 0.00 0.00 0.00 0.00 0.00 0.00 0.00 0.00 0.00 0.00 0.00 0.00 0.00 0.00 0.00 0.00 0.00 0.00 0.00
0.00 0.03 0.00 0.00 0.00 0.00 0.00 0.00 0.00 0.00 0.00 0.00 0.00 0.00 0.00 0.00 0.00 0.00 0.00 0.00 0.00 0.00 0.00 0.00 0.00 0.00 0.00 0.00 0.00 0.00 0.00 0.00
0.01 0.00 0.00 0.00 0.00 0.00 0.00 0.00 0.00 0.00 0.00 0.00 0.00 0.00 0.00 0.00 0.00 0.00 0.00 0.00 0.00 0.00 0.00 0.00 0.00 0.00 0.00 0.00 0.00 0.00 0.00 0.00
0.00 0.00 0.00 0.00 0.00 0.00 0.00 0.00 0.00 0.00 0.00 0.00 0.00 0.00 0.00 0.00 0.00 0.00 0.00 0.00 0.00 0.00 0.00 0.00 0.00 0.00 0.00 0.00 0.00 0.00 0.00 0.00
0.00 0.00 0.01 0.01 0.01 0.00 0.00 0.00 0.00 0.00 0.00 0.00 0.00 0.00 0.00 0.00 0.00 0.00 0.00 0.00 0.00 0.00 0.00 0.00 0.00 0.00 0.00 0.00 0.00 0.00 0.00 0.00
0.00 0.01 0.03 0.01 0.00 0.00 0.00 0.00 0.00 0.00 0.00 0.00 0.00 0.00 0.00 0.00 0.00 0.00 0.00 0.00 0.00 0.00 0.00 0.00 0.00 0.00 0.00 0.00 0.00 0.00 0.00 0.00
0.00 0.00 0.00 0.00 0.00 0.00 0.00 0.00 0.00 0.00 0.00 0.00 0.00 0.00 0.00 0.00 0.00 0.00 0.00 0.00 0.00 0.00 0.00 0.00 0.00 0.00 0.00 0.00 0.00 0.00 0.00 0.00
0.00 0.00 0.00 0.00 0.00 0.00 0.00 0.00 0.00 0.00 0.00 0.00 0.00 0.00 0.00 0.00 0.00 0.00 0.00 0.00 0.00 0.00 0.00 0.00 0.00 0.00 0.00 0.00 0.00 0.00 0.00 0.00
0.00 0.00 0.00 0.00 0.00 0.00 0.00 0.00 0.00 0.00 0.00 0.00 0.00 0.00 0.00 0.00 0.00 0.00 0.00 0.00 0.00 0.00 0.00 0.00 0.00 0.00 0.00 0.00 0.00 0.01 0.00 0.00
0.00 0.00 0.00 0.00 0.00 0.00 0.00 0.00 0.00 0.00 0.00 0.00 0.00 0.00 0.00 0.00 0.00 0.00 0.00 0.00 0.00 0.00 0.00 0.00 0.00 0.00 0.00 0.00 0.00 0.00 0.00 0.00
0.00 0.00 0.00 0.00 0.00 0.00 0.00 0.00 0.00 0.00 0.00 0.00 0.00 0.00 0.00 0.00 0.00 0.00 0.00 0.00 0.00 0.00 0.00 0.00 0.00 0.00 0.00 0.00 0.00 0.00 0.00 0.00
0.00 0.00 0.00 0.00 0.00 0.00 0.00 0.00 0.00 0.00 0.00 0.00 0.00 0.00 0.00 0.00 0.00 0.00 0.00 0.00 0.00 0.00 0.00 0.00 0.00 0.00 0.00 0.00 0.00 0.00 0.00 0.00
0.00 0.00 0.00 0.00 0.00 0.00 0.00 0.00 0.00 0.00 0.00 0.00 0.00 0.00 0.00 0.00 0.00 0.00 0.00 0.00 0.00 0.00 0.00 0.01 0.01 0.01 0.00 0.00 0.00 0.00 0.00 0.00
MSLP
1016.88 1017.49 1017.95 1018.25 1018.68 1018.84 1019.05 1019.26 1019.30 1019.53 1019.42 1019.66 1019.73 1019.73 1019.68 1019.88 1020.04 1020.07 1020.29 1020.24 1020.22 1020.27 1020.28 1020.17 1020.00 1019.93 1019.80 1019.63 1019.29 1018.90 1018.81 1018.44
1015.98 1016.85 1017.28 1017.98 1018.57 1018.69 1019.02 1019.12 1019.29 1019.42 1019.26 1019.48 1019.77 1019.78 1019.61 1019.87 1020.12 1020.17 1020.36 1020.42 1020.43 1020.42 1020.35 1020.17 1019.99 1019.79 1019.59 1019.34 1018.96 1018.73 1018.51 1018.07
1015.69 1016.31 1016.88 1017.57 1017.88 1018.54 1018.98 1019.07 1019.19 1019.22 1019.16 1019.13 1019.58 1019.43 1019.59 1019.75 1019.80 1019.84 1019.95 1020.07 1020.02 1020.09 1020.06 1019.87 1019.78 1019.72 1019.53 1019.27 1018.95 1018.61 1018.31 1017.73
1016.18 1016.34 1016.78 1017.09 1016.93 1017.92 1018.21 1018.25 1018.59 1018.68 1018.77 1018.74 1018.93 1018.75 1018.97 1019.04 1019.40 1019.84 1019.84 1019.77 1019.77 1019.95 1019.87 1019.76 1019.72 1019.45 1019.20 1019.09 1019.02 1018.36 1017.91 1017.75
1015.99 1016.52 1016.81 1016.98 1017.20 1017.16 1017.28 1017.59 1017.78 1018.06 1018.28 1018.64 1018.63 1018.67 1018.87 1018.88 1019.30 1019.74 1019.67 1019.63 1019.66 1019.62 1019.55 1019.63 1019.18 1018.97 1019.03 1018.95 1018.72 1018.42 1018.16 1017.75
1015.45 1016.18 1016.97 1016.89 1017.13 1017.23 1017.36 1017.64 1017.91 1017.96 1018.22 1018.42 1018.63 1018.77 1018.88 1018.92 1019.11 1019.19 1019.04 1018.95 1018.93 1018.86 1018.80 1018.67 1018.58 1018.52 1018.54 1018.59 1018.59 1018.56 1018.28 1018.01
1015.01 1015.50 1016.68 1016.73 1017.18 1017.34 1017.66 1017.85 1017.96 1018.08 1018.14 1018.41 1018.67 1018.82 1018.98 1018.98 1019.10 1019.06 1018.92 1018.71 1018.62 1018.65 1018.61 1018.60 1018.49 1018.25 1018.09 1018.01 1018.03 1018.06 1017.95 1017.78
1014.47 1014.45 1015.00 1016.07 1016.93 1017.29 1017.66 1017.79 1017.87 1018.00 1018.12 1018.49 1018.73 1018.99 1018.98 1018.98 1019.09 1019.01 1018.83 1018.60 1018.55 1018.55 1018.54 1018.44 1018.31 1018.05 1017.96 1017.79 1017.64 1017.62 1017.62 1017.60
1013.66 1015.36 1014.29 1015.77 1016.79 1017.26 1017.52 1017.52 1017.84 1017.91 1018.05 1018.38 1018.63 1018.84 1018.98 1019.05 1019.12 1018.98 1018.73 1018.46 1018.39 1018.37 1018.21 1017.98 1017.90 1017.55 1017.50 1017.14 1017.01 1016.99 1017.09 1017.17
1014.22 1013.87 1014.91 1016.01 1016.81 1017.17 1017.32 1017.44 1017.77 1017.89 1017.96 1018.10 1018.35 1018.52 1018.64 1018.87 1019.05 1018.98 1018.72 1018.56 1018.45 1018.31 1018.22 1017.98 1017.75 1017.45 1017.14 1016.85 1016.59 1016.29 1016.28 1016.38
1014.09 1014.56 1015.36 1016.18 1016.66 1017.05 1017.41 1017.68 1017.95 1017.84 1017.90 1018.00 1018.41 1018.54 1018.64 1018.88 1019.07 1019.03 1018.81 1018.63 1018.40 1018.27 1018.07 1017.90 1017.65 1017.36 1016.95 1016.47 1016.21 1015.95 1015.67 1015.35
1014.93 1015.45 1016.21 1016.84 1017.07 1017.23 1017.50 1017.55 1017.62 1017.54 1017.72 1018.11 1018.38 1018.64 1018.75 1019.00 1019.08 1018.91 1018.60 1018.51 1018.29 1018.01 1017.85 1017.78 1017.68 1017.37 1016.88 1016.33 1016.02 1015.77 1015.55 1015.33
1015.97 1016.68 1017.09 1017.46 1017.42 1017.72 1017.84 1018.05 1017.95 1017.93 1017.96 1018.20 1018.62 1018.80 1018.98 1019.02 1019.08 1019.04 1018.88 1018.75 1018.55 1018.45 1017.90 1017.57 1017.51 1017.19 1016.82 1016.24 1015.65 1015.21 1014.88 1014.62
1016.91 1017.32 1017.90 1018.10 1018.14 1018.24 1018.43 1018.46 1018.33 1018.25 1018.11 1018.29 1018.47 1018.68 1018.96 1019.00 1019.08 1019.23 1018.76 1018.91 1018.84 1018.66 1018.11 1017.73 1017.46 1017.22 1017.07 1016.59 1015.92 1015.23 1014.83 1014.46
1017.72 1018.05 1018.36 1018.74 1018.80 1018.50 1018.57 1018.48 1018.19 1018.34 1018.33 1018.33 1018.15 1018.89 1019.11 1019.14 1019.14 1019.03 1018.82 1018.82 1018.86 1018.78 1018.37 1018.06 1017.78 1017.49 1017.19 1017.24 1017.02 1016.24 1015.53 1014.74
1018.24 1018.40 1018.59 1018.92 1019.22 1019.33 1019.39 1019.32 1019.17 1019.28 1019.16 1019.23 1019.01 1019.07 1019.25 1019.30 1019.08 1018.97 1018.84 1018.79 1018.88 1018.72 1018.37 1018.57 1018.63 1018.64 1018.16 1018.27 1018.54 1018.60 1017.24 1015.65
1018.67 1018.60 1018.61 1018.90 1019.30 1019.47 1019.68 1019.90 1020.04 1019.94 1019.73 1019.61 1019.62 1019.43 1019.54 1019.38 1019.31 1019.13 1018.99 1019.03 1019.01 1019.06 1019.11 1019.28 1019.44 1019.65 1019.71 1019.47 1019.11 1018.75 1018.60 1018.60
1018.79 1018.76 1018.74 1018.86 1019.02 1019.31 1019.52 1019.80 1019.94 1020.00 1020.02 1020.09 1020.15 1020.19 1020.08 1019.93 1019.56 1019.36 1019.08 1018.93 1019.31 1019.31 1019.34 1019.45 1019.96 1020.18 1020.21 1020.12 1020.02 1019.77 1019.55 1019.45
1018.65 1018.82 1018.96 1018.86 1018.99 1019.08 1019.31 1019.60 1019.88 1020.15 1020.33 1020.59 1020.67 1020.64 1020.49 1020.33 1019.87 1019.45 1019.54 1019.45 1019.58 1019.55 1019.54 1019.77 1020.08 1020.18 1020.17 1020.14 1020.06 1020.06 1020.09 1019.98
1018.63 1018.87 1019.06 1019.12 1019.24 1019.76 1019.86 1019.94 1020.08 1020.40 1020.73 1020.91 1021.02 1020.94 1020.72 1020.22 1020.02 1019.84 1019.82 1019.86 1019.89 1019.84 1019.85 1020.01 1020.01 1020.07 1019.80 1019.60 1019.47 1019.35 1019.31 1019.20
Thickness
5685 5680 5677 5675 5670 5668 5665 5661 5660 5657 5657 5653 5652 5651 5650 5646 5643 5642 5638 5637 5636 5634 5633 5632 5632 5631 5631 5631 5633 5635 5635 5635
5691 5684 5681 5675 5670 5668 5664 5661 5657 5656 5656 5652 5648 5646 5647 5643 5639 5637 5634 5632 5630 5629 5627 5627 5628 5628 5628 5629 5631 5632 5634 5635
5691 5686 5681 5677 5672 5666 5661 5659 5656 5655 5653 5652 5647 5645 5642 5639 5635 5634 5631 5628 5628 5626 5623 5624 5624 5623 5623 5625 5626 5628 5628 5631
5687 5685 5681 5676 5676 5668 5665 5662 5658 5655 5651 5648 5645 5644 5639 5637 5634 5629 5627 5626 5624 5620 5619 5617 5617 5617 5619 5619 5618 5621 5624 5625
5686 5681 5677 5674 5671 5671 5668 5663 5658 5654 5650 5644 5642 5639 5635 5633 5630 5625 5624 5622 5618 5617 5615 5612 5612 5612 5610 5610 5612 5614 5615 5616
5690 5681 5673 5672 5669 5666 5663 5658 5653 5650 5646 5641 5638 5634 5631 5629 5625 5620 5619 5617 5616 5614 5612 5610 5610 5609 5607 5606 5605 5605 5607 5608
5688 5684 5673 5670 5664 5661 5656 5651 5647 5643 5640 5636 5632 5628 5625 5622 5618 5615 5613 5612 5610 5607 5606 5604 5603 5604 5604 5604 5602 5601 5602 5602
5689 5690 5683 5672 5663 5657 5651 5647 5642 5638 5635 5631 5625 5620 5617 5615 5610 5608 5606 5605 5603 5601 5599 5599 5598 5597 5596 5597 5598 5597 5595 5596
5692 5672 5681 5672 5658 5652 5646 5643 5637 5633 5629 5623 5617 5614 5610 5606 5601 5599 5598 5597 5595 5593 5593 5594 5593 5593 5593 5594 5593 5594 5593 5589
5676 5690 5676 5664 5652 5646 5642 5637 5632 5625 5621 5614 5610 5609 5601 5598 5592 5590 5588 5587 5585 5583 5582 5581 5581 5582 5582 5582 5583 5584 5584 5584
5681 5675 5666 5655 5648 5640 5633 5628 5621 5617 5612 5606 5601 5596 5591 5588 5583 5580 5578 5576 5574 5573 5572 5570 5568 5568 5571 5573 5574 5574 5575 5575
5670 5661 5653 5644 5636 5633 5625 5620 5617 5613 5607 5597 5594 5586 5582 5576 5572 5570 5568 5567 5566 5564 5562 5560 5556 5555 5557 5560 5560 5559 5559 5559
5654 5647 5639 5632 5628 5619 5614 5607 5604 5600 5595 5587 5581 5573 5570 5565 5561 5557 5555 5552 5550 5546 5545 5546 5543 5540 5540 5544 5548 5550 5551 5551
5640 5634 5626 5620 5615 5608 5604 5599 5594 5590 5585 5578 5572 5564 5558 5554 5549 5543 5541 5536 5532 5528 5529 5530 5529 5524 5518 5520 5524 5533 5532 5534
5627 5621 5615 5610 5602 5600 5595 5591 5588 5581 5575 5570 5564 5554 5545 5539 5533 5528 5526 5522 5515 5510 5509 5506 5507 5505 5499 5492 5492 5499 5502 5515
5616 5611 5605 5600 5592 5584 5578 5573 5569 5563 5558 5552 5547 5538 5531 5523 5518 5513 5509 5504 5498 5494 5493 5484 5477 5474 5475 5466 5454 5446 5458 5480
5605 5600 5595 5588 5582 5575 5567 5560 5552 5547 5542 5536 5529 5524 5514 5508 5500 5495 5488 5482 5477 5470 5466 5458 5449 5439 5433 5435 5433 5428 5417 5417
5596 5590 5585 5579 5573 5567 5560 5551 5543 5536 5529 5521 5513 5503 5494 5485 5479 5474 5468 5462 5452 5444 5440 5434 5422 5412 5405 5402 5399 5398 5395 5385
5590 5584 5576 5572 5564 5558 5549 5540 5531 5520 5509 5499 5488 5479 5471 5462 5457 5452 5442 5436 5429 5421 5412 5402 5393 5387 5381 5374 5371 5368 5363 5359
5578 5571 5564 5558 5551 5540 5531 5522 5512 5501 5490 5478 5467 5458 5450 5443 5436 5427 5419 5409 5401 5393 5385 5375 5365 5358 5355 5352 5347 5344 5341 5338